Time,TemperatureF,DewpointF,PressureIn,WindDirection,WindDirectionDegrees,WindSpeedMPH,WindSpeedGustMPH,Humidity,HourlyPrecipIn,Conditions,Clouds,dailyrainin,SoftwareType,DateUTC
2013-04-25 00:00:00,59.5,53.7,29.87,SW,234,3.0,6.0,81,0.00,,CLR,0.00,VWS V14.00,2013-04-25 04:00:00,
2013-04-25 00:01:00,59.5,53.7,29.87,SW,234,3.0,6.0,81,0.00,,OVC100,0.00,VWS V14.00,2013-04-25 04:01:00,
2013-04-25 00:02:00,59.5,53.7,29.87,SW,214,3.0,4.0,81,0.00,,OVC100,0.00,VWS V14.00,2013-04-25 04:02:00,
2013-04-25 00:04:00,59.5,53.7,29.87,SSW,201,2.0,7.0,81,0.00,,OVC100,0.00,VWS V14.00,2013-04-25 04:04:00,
2013-04-25 00:09:00,59.5,53.7,29.88,SW,217,3.0,7.0,81,0.00,,OVC100,0.00,VWS V14.00,2013-04-25 04:09:00,
2013-04-25 00:14:00,59.5,53.7,29.88,SSE,168,3.0,7.0,81,0.00,,OVC100,0.00,VWS V14.00,2013-04-25 04:14:00,
2013-04-25 00:19:00,59.5,53.7,29.88,SSW,210,3.0,7.0,81,0.00,,OVC100,0.00,VWS V14.00,2013-04-25 04:19:00,
2013-04-25 00:24:00,59.3,53.8,29.88,WNW,294,2.0,7.0,82,0.00,,OVC100,0.00,VWS V14.00,2013-04-25 04:24:00,
2013-04-25 00:29:00,59.3,53.8,29.88,South,181,0.0,7.0,82,0.00,,OVC100,0.00,VWS V14.00,2013-04-25 04:29:00,
2013-04-25 00:30:00,59.3,53.8,29.88,West,259,2.0,7.0,82,0.00,,CLR,0.00,VWS V14.00,2013-04-25 04:30:00,
2013-04-25 00:34:00,59.3,53.8,29.89,SSW,197,0.0,4.0,82,0.00,,OVC100,0.00,VWS V14.00,2013-04-25 04:34:00,
2013-04-25 00:39:00,59.3,54.2,29.89,SSW,204,2.0,4.0,83,0.00,,OVC100,0.00,VWS V14.00,2013-04-25 04:39:00,
2013-04-25 00:44:00,59.3,54.2,29.89,SSW,200,1.0,4.0,83,0.00,,OVC100,0.00,VWS V14.00,2013-04-25 04:44:00,
2013-04-25 00:49:00,59.5,54.3,29.90,West,264,2.0,4.0,83,0.00,,OVC100,0.00,VWS V14.00,2013-04-25 04:49:00,
2013-04-25 00:54:00,60.1,55.3,29.91,South,186,4.0,10.0,84,0.00,,OVC100,0.00,VWS V14.00,2013-04-25 04:54:00,
2013-04-25 00:59:00,61.1,53.8,29.91,NNW,340,8.0,11.0,77,0.00,,OVC100,0.00,VWS V14.00,2013-04-25 04:59:00,
2013-04-25 01:00:00,61.1,53.8,29.91,NNW,348,6.0,11.0,77,0.00,,CLR,0.00,VWS V14.00,2013-04-25 05:00:00,
2013-04-25 01:04:00,60.8,51.3,29.92,NW,321,10.0,13.0,71,0.00,,OVC065,0.00,VWS V14.00,2013-04-25 05:04:00,
2013-04-25 01:09:00,60.3,50.1,29.92,NW,311,8.0,13.0,69,0.00,,OVC065,0.00,VWS V14.00,2013-04-25 05:09:00,
2013-04-25 01:14:00,59.9,48.9,29.93,NW,319,5.0,17.0,67,0.00,,OVC065,0.00,VWS V14.00,2013-04-25 05:14:00,
2013-04-25 01:19:00,59.7,48.7,29.93,West,263,4.0,17.0,67,0.00,,OVC065,0.00,VWS V14.00,2013-04-25 05:19:00,
2013-04-25 01:24:00,59.4,45.5,29.93,WNW,298,7.0,17.0,60,0.00,,OVC042,0.00,VWS V14.00,2013-04-25 05:24:00,
2013-04-25 01:29:00,59.1,44.8,29.93,NW,309,5.0,17.0,59,0.00,,OVC042,0.00,VWS V14.00,2013-04-25 05:29:00,
2013-04-25 01:30:00,59.1,44.8,29.93,WNW,285,6.0,20.0,59,0.00,,CLR,0.00,VWS V14.00,2013-04-25 05:30:00,
2013-04-25 01:34:00,59.0,44.3,29.94,SW,215,11.0,16.0,58,0.00,,OVC042,0.00,VWS V14.00,2013-04-25 05:34:00,
2013-04-25 01:39:00,58.6,43.0,29.95,WNW,283,5.0,17.0,56,0.00,,OVC042,0.00,VWS V14.00,2013-04-25 05:39:00,
2013-04-25 01:44:00,58.2,41.2,29.94,West,278,6.0,17.0,53,0.00,,OVC042,0.00,VWS V14.00,2013-04-25 05:44:00,
2013-04-25 01:49:00,57.8,40.8,29.95,WNW,290,3.0,17.0,53,0.00,,OVC042,0.00,VWS V14.00,2013-04-25 05:49:00,
2013-04-25 01:55:00,57.3,40.3,29.95,NW,307,2.0,17.0,53,0.00,,OVC042,0.00,VWS V14.00,2013-04-25 05:55:00,
2013-04-25 02:00:00,56.7,40.3,29.96,West,264,6.0,6.0,54,0.00,,OVC042,0.00,VWS V14.00,2013-04-25 06:00:00,
2013-04-25 02:05:00,56.1,40.6,29.97,NW,316,4.0,18.0,56,0.00,,OVC080,0.00,VWS V14.00,2013-04-25 06:05:00,
2013-04-25 02:10:00,55.6,40.6,29.96,NW,311,4.0,18.0,57,0.00,,OVC080,0.00,VWS V14.00,2013-04-25 06:10:00,
2013-04-25 02:15:00,55.2,40.7,29.97,NW,304,7.0,18.0,58,0.00,,OVC080,0.00,VWS V14.00,2013-04-25 06:15:00,
2013-04-25 02:20:00,54.6,40.1,29.97,NNW,343,12.0,18.0,58,0.00,,OVC080,0.00,VWS V14.00,2013-04-25 06:20:00,
2013-04-25 02:25:00,54.1,39.7,29.98,WNW,291,3.0,18.0,58,0.00,,OVC080,0.00,VWS V14.00,2013-04-25 06:25:00,
2013-04-25 02:30:00,53.6,39.6,29.98,NW,312,3.0,7.0,59,0.00,,OVC080,0.00,VWS V14.00,2013-04-25 06:30:00,
2013-04-25 02:35:00,53.3,39.8,29.98,WNW,302,3.0,13.0,60,0.00,,OVC080,0.00,VWS V14.00,2013-04-25 06:35:00,
2013-04-25 02:40:00,53.0,39.1,29.99,NW,314,9.0,13.0,59,0.00,,OVC080,0.00,VWS V14.00,2013-04-25 06:40:00,
2013-04-25 02:45:00,52.7,38.3,29.99,WNW,283,4.0,16.0,58,0.00,,OVC080,0.00,VWS V14.00,2013-04-25 06:45:00,
2013-04-25 02:50:00,52.3,38.0,29.99,West,266,1.0,16.0,58,0.00,,OVC080,0.00,VWS V14.00,2013-04-25 06:50:00,
2013-04-25 02:55:00,52.0,38.1,29.99,WNW,300,3.0,16.0,59,0.00,,OVC080,0.00,VWS V14.00,2013-04-25 06:55:00,
2013-04-25 03:00:00,51.8,37.9,30.00,NNW,340,10.0,10.0,59,0.00,,OVC080,0.00,VWS V14.00,2013-04-25 07:00:00,
2013-04-25 03:05:00,51.5,37.2,30.00,NW,305,3.0,19.0,58,0.00,,BKN090,0.00,VWS V14.00,2013-04-25 07:05:00,
2013-04-25 03:10:00,51.3,37.0,30.01,NNW,330,4.0,19.0,58,0.00,,BKN090,0.00,VWS V14.00,2013-04-25 07:10:00,
2013-04-25 03:15:00,51.1,36.8,30.00,NW,326,10.0,19.0,58,0.00,,BKN090,0.00,VWS V14.00,2013-04-25 07:15:00,
2013-04-25 03:20:00,50.9,36.7,30.00,NW,326,8.0,19.0,58,0.00,,BKN090,0.00,VWS V14.00,2013-04-25 07:20:00,
2013-04-25 03:25:00,50.6,35.9,30.01,NW,313,6.0,19.0,57,0.00,,BKN090,0.00,VWS V14.00,2013-04-25 07:25:00,
2013-04-25 03:30:00,50.3,36.1,30.01,West,278,5.0,7.0,58,0.00,,BKN090,0.00,VWS V14.00,2013-04-25 07:30:00,
2013-04-25 03:35:00,49.9,35.7,30.02,WNW,291,4.0,11.0,58,0.00,,BKN090,0.00,VWS V14.00,2013-04-25 07:35:00,
2013-04-25 03:40:00,49.7,36.0,30.01,WNW,294,1.0,15.0,59,0.00,,BKN090,0.00,VWS V14.00,2013-04-25 07:40:00,
2013-04-25 03:45:00,49.5,35.8,30.02,NW,308,7.0,15.0,59,0.00,,BKN090,0.00,VWS V14.00,2013-04-25 07:45:00,
2013-04-25 03:50:00,49.4,35.7,30.03,NW,314,4.0,15.0,59,0.00,,BKN090,0.00,VWS V14.00,2013-04-25 07:50:00,
2013-04-25 03:55:00,49.3,35.6,30.04,NNW,327,4.0,15.0,59,0.00,,BKN090,0.00,VWS V14.00,2013-04-25 07:55:00,
2013-04-25 04:00:00,49.3,35.2,30.04,NW,311,3.0,11.0,58,0.00,,OVC075,0.00,VWS V14.00,2013-04-25 08:00:00,
2013-04-25 04:06:00,49.2,35.1,30.03,NW,307,2.0,12.0,58,0.00,,OVC075,0.00,VWS V14.00,2013-04-25 08:06:00,
2013-04-25 04:11:00,49.1,35.0,30.03,WNW,297,10.0,12.0,58,0.00,,OVC075,0.00,VWS V14.00,2013-04-25 08:11:00,
2013-04-25 04:16:00,48.9,34.8,30.04,NW,323,4.0,12.0,58,0.00,,OVC075,0.00,VWS V14.00,2013-04-25 08:16:00,
2013-04-25 04:21:00,48.8,35.1,30.05,North,6,1.0,12.0,59,0.00,,OVC075,0.00,VWS V14.00,2013-04-25 08:21:00,
2013-04-25 04:26:00,48.6,35.4,30.05,NNE,22,5.0,12.0,60,0.00,,OVC075,0.00,VWS V14.00,2013-04-25 08:26:00,
2013-04-25 04:30:00,48.4,35.6,30.06,WNW,285,2.0,12.0,61,0.00,,CLR,0.00,VWS V14.00,2013-04-25 08:30:00,
2013-04-25 04:31:00,48.3,35.5,30.07,NW,311,4.0,6.0,61,0.00,,OVC075,0.00,VWS V14.00,2013-04-25 08:31:00,
2013-04-25 04:36:00,48.1,35.3,30.06,NNW,337,1.0,9.0,61,0.00,,OVC075,0.00,VWS V14.00,2013-04-25 08:36:00,
2013-04-25 04:41:00,47.9,35.5,30.07,WNW,297,6.0,9.0,62,0.00,,OVC075,0.00,VWS V14.00,2013-04-25 08:41:00,
2013-04-25 04:46:00,48.0,34.8,30.08,NW,322,2.0,9.0,60,0.00,,OVC075,0.00,VWS V14.00,2013-04-25 08:46:00,
2013-04-25 04:51:00,48.0,34.4,30.08,North,8,6.0,9.0,59,0.00,,OVC075,0.00,VWS V14.00,2013-04-25 08:51:00,
2013-04-25 04:56:00,48.0,34.4,30.08,North,359,5.0,9.0,59,0.00,,OVC075,0.00,VWS V14.00,2013-04-25 08:56:00,
2013-04-25 05:00:00,48.1,34.0,30.08,NW,320,3.0,10.0,58,0.00,,CLR,0.00,VWS V14.00,2013-04-25 09:00:00,
2013-04-25 05:01:00,48.1,34.0,30.08,NNW,342,7.0,9.0,58,0.00,,OVC085,0.00,VWS V14.00,2013-04-25 09:01:00,
2013-04-25 05:06:00,48.1,34.5,30.08,NNW,345,6.0,12.0,59,0.00,,OVC085,0.00,VWS V14.00,2013-04-25 09:06:00,
2013-04-25 05:11:00,48.0,33.9,30.08,NW,321,3.0,12.0,58,0.00,,OVC085,0.00,VWS V14.00,2013-04-25 09:11:00,
2013-04-25 05:16:00,48.0,34.4,30.08,NW,305,3.0,12.0,59,0.00,,OVC085,0.00,VWS V14.00,2013-04-25 09:16:00,
2013-04-25 05:21:00,47.9,34.3,30.10,WNW,283,3.0,12.0,59,0.00,,OVC085,0.00,VWS V14.00,2013-04-25 09:21:00,
2013-04-25 05:26:00,47.9,33.8,30.10,North,350,5.0,12.0,58,0.00,,OVC085,0.00,VWS V14.00,2013-04-25 09:26:00,
2013-04-25 05:30:00,47.8,34.2,30.10,NNW,340,5.0,12.0,59,0.00,,CLR,0.00,VWS V14.00,2013-04-25 09:30:00,
2013-04-25 05:31:00,47.7,34.1,30.11,NW,326,7.0,13.0,59,0.00,,OVC085,0.00,VWS V14.00,2013-04-25 09:31:00,
2013-04-25 05:36:00,47.5,33.9,30.11,NW,305,3.0,13.0,59,0.00,,OVC085,0.00,VWS V14.00,2013-04-25 09:36:00,
2013-04-25 05:41:00,47.3,33.7,30.11,NW,321,4.0,13.0,59,0.00,,OVC085,0.00,VWS V14.00,2013-04-25 09:41:00,
2013-04-25 05:46:00,47.1,33.5,30.12,NW,323,3.0,13.0,59,0.00,,OVC085,0.00,VWS V14.00,2013-04-25 09:46:00,
2013-04-25 05:51:00,46.9,33.8,30.12,NW,323,3.0,13.0,60,0.00,,OVC085,0.00,VWS V14.00,2013-04-25 09:51:00,
2013-04-25 05:56:00,46.7,33.6,30.12,NNW,339,4.0,13.0,60,0.00,,OVC085,0.00,VWS V14.00,2013-04-25 09:56:00,
2013-04-25 06:00:00,46.6,33.5,30.12,NW,324,2.0,13.0,60,0.00,,CLR,0.00,VWS V14.00,2013-04-25 10:00:00,
2013-04-25 06:01:00,46.5,33.4,30.12,WNW,293,3.0,7.0,60,0.00,,SCT100,0.00,VWS V14.00,2013-04-25 10:01:00,
2013-04-25 06:06:00,46.2,33.1,30.13,NW,322,2.0,9.0,60,0.00,,SCT100,0.00,VWS V14.00,2013-04-25 10:06:00,
2013-04-25 06:11:00,46.0,33.3,30.13,WNW,288,7.0,9.0,61,0.00,,SCT100,0.00,VWS V14.00,2013-04-25 10:11:00,
2013-04-25 06:17:00,45.8,33.1,30.14,NNW,329,1.0,9.0,61,0.00,,SCT100,0.00,VWS V14.00,2013-04-25 10:17:00,
2013-04-25 06:22:00,45.7,33.0,30.15,NW,323,8.0,11.0,61,0.00,,SCT100,0.00,VWS V14.00,2013-04-25 10:22:00,
2013-04-25 06:27:00,45.6,32.1,30.15,North,349,6.0,12.0,59,0.00,,SCT100,0.00,VWS V14.00,2013-04-25 10:27:00,
2013-04-25 06:30:00,45.6,32.5,30.16,West,270,6.0,12.0,60,0.00,,CLR,0.00,VWS V14.00,2013-04-25 10:30:00,
2013-04-25 06:32:00,45.5,32.0,30.16,NW,326,8.0,10.0,59,0.00,,SCT100,0.00,VWS V14.00,2013-04-25 10:32:00,
2013-04-25 06:37:00,45.4,31.9,30.16,NNW,341,7.0,11.0,59,0.00,,SCT100,0.00,VWS V14.00,2013-04-25 10:37:00,
2013-04-25 06:42:00,45.3,31.8,30.16,NNW,329,2.0,13.0,59,0.00,,SCT100,0.00,VWS V14.00,2013-04-25 10:42:00,
2013-04-25 06:47:00,45.4,31.9,30.17,NNW,334,3.0,13.0,59,0.00,,SCT100,0.00,VWS V14.00,2013-04-25 10:47:00,
2013-04-25 06:52:00,45.5,31.6,30.17,NW,312,4.0,13.0,58,0.00,,SCT100,0.00,VWS V14.00,2013-04-25 10:52:00,
2013-04-25 06:57:00,45.5,32.0,30.17,NW,311,4.0,13.0,59,0.00,,SCT100,0.00,VWS V14.00,2013-04-25 10:57:00,
2013-04-25 07:00:00,45.5,32.0,30.18,NNW,330,5.0,13.0,59,0.00,,CLR,0.00,VWS V14.00,2013-04-25 11:00:00,
2013-04-25 07:02:00,45.5,31.6,30.17,NW,311,6.0,15.0,58,0.00,,CLR,0.00,VWS V14.00,2013-04-25 11:02:00,
2013-04-25 07:07:00,45.5,32.0,30.18,NW,316,3.0,15.0,59,0.00,,CLR,0.00,VWS V14.00,2013-04-25 11:07:00,
2013-04-25 07:12:00,45.7,31.8,30.18,NW,304,4.0,15.0,58,0.00,,CLR,0.00,VWS V14.00,2013-04-25 11:12:00,
2013-04-25 07:17:00,45.9,32.4,30.18,NNW,336,3.0,15.0,59,0.00,,CLR,0.00,VWS V14.00,2013-04-25 11:17:00,
2013-04-25 07:22:00,46.2,31.8,30.18,NNW,342,4.0,15.0,57,0.00,,CLR,0.00,VWS V14.00,2013-04-25 11:22:00,
2013-04-25 07:27:00,46.3,31.5,30.19,NNW,327,6.0,16.0,56,0.00,,CLR,0.00,VWS V14.00,2013-04-25 11:27:00,
2013-04-25 07:30:00,46.4,32.4,30.19,East,80,3.0,16.0,58,0.00,,CLR,0.00,VWS V14.00,2013-04-25 11:30:00,
2013-04-25 07:32:00,46.5,32.1,30.19,NNW,330,2.0,9.0,57,0.00,,CLR,0.00,VWS V14.00,2013-04-25 11:32:00,
2013-04-25 07:37:00,46.7,31.9,30.20,NNW,336,5.0,10.0,56,0.00,,CLR,0.00,VWS V14.00,2013-04-25 11:37:00,
2013-04-25 07:42:00,46.9,32.0,30.20,NW,304,3.0,11.0,56,0.00,,CLR,0.00,VWS V14.00,2013-04-25 11:42:00,
2013-04-25 07:47:00,47.2,31.9,30.20,NW,311,6.0,11.0,55,0.00,,CLR,0.00,VWS V14.00,2013-04-25 11:47:00,
2013-04-25 07:52:00,47.2,31.9,30.20,NNW,333,2.0,11.0,55,0.00,,CLR,0.00,VWS V14.00,2013-04-25 11:52:00,
2013-04-25 07:57:00,47.5,31.7,30.20,North,351,5.0,11.0,54,0.00,,CLR,0.00,VWS V14.00,2013-04-25 11:57:00,
2013-04-25 08:00:00,47.5,32.2,30.20,NNW,342,7.0,11.0,55,0.00,,CLR,0.00,VWS V14.00,2013-04-25 12:00:00,
2013-04-25 08:02:00,47.5,31.7,30.21,NW,320,1.0,10.0,54,0.00,,CLR,0.00,VWS V14.00,2013-04-25 12:02:00,
2013-04-25 08:07:00,48.0,32.2,30.21,NNW,339,7.0,10.0,54,0.00,,CLR,0.00,VWS V14.00,2013-04-25 12:07:00,
2013-04-25 08:12:00,48.0,31.7,30.21,WNW,290,4.0,10.0,53,0.00,,CLR,0.00,VWS V14.00,2013-04-25 12:12:00,
2013-04-25 08:17:00,48.3,32.4,30.21,NNE,19,2.0,10.0,54,0.00,,CLR,0.00,VWS V14.00,2013-04-25 12:17:00,
2013-04-25 08:22:00,48.6,31.8,30.21,WNW,293,1.0,10.0,52,0.00,,CLR,0.00,VWS V14.00,2013-04-25 12:22:00,
2013-04-25 08:28:00,48.4,31.1,30.21,NW,315,6.0,13.0,51,0.00,,CLR,0.00,VWS V14.00,2013-04-25 12:28:00,
2013-04-25 08:30:00,48.2,30.9,30.21,North,4,4.0,13.0,51,0.00,,CLR,0.00,VWS V14.00,2013-04-25 12:30:00,
2013-04-25 08:33:00,48.2,31.4,30.21,North,4,2.0,12.0,52,0.00,,CLR,0.00,VWS V14.00,2013-04-25 12:33:00,
2013-04-25 08:38:00,48.5,31.7,30.22,NW,308,5.0,12.0,52,0.00,,CLR,0.00,VWS V14.00,2013-04-25 12:38:00,
2013-04-25 08:43:00,48.7,30.9,30.21,NNW,331,5.0,14.0,50,0.00,,CLR,0.00,VWS V14.00,2013-04-25 12:43:00,
2013-04-25 08:48:00,48.7,31.4,30.22,NW,319,7.0,14.0,51,0.00,,CLR,0.00,VWS V14.00,2013-04-25 12:48:00,
2013-04-25 08:53:00,48.7,31.9,30.22,WSW,258,2.0,14.0,52,0.00,,CLR,0.00,VWS V14.00,2013-04-25 12:53:00,
2013-04-25 08:58:00,49.5,32.1,30.22,NNW,344,6.0,14.0,51,0.00,,CLR,0.00,VWS V14.00,2013-04-25 12:58:00,
2013-04-25 09:00:00,49.5,31.6,30.22,NW,323,9.0,14.0,50,0.00,,CLR,0.00,VWS V14.00,2013-04-25 13:00:00,
2013-04-25 09:03:00,49.3,30.5,30.22,NW,313,7.0,11.0,48,0.00,,CLR,0.00,VWS V14.00,2013-04-25 13:03:00,
2013-04-25 09:08:00,49.5,30.1,30.22,NNW,339,3.0,12.0,47,0.00,,CLR,0.00,VWS V14.00,2013-04-25 13:08:00,
2013-04-25 09:13:00,49.7,30.8,30.22,North,352,3.0,12.0,48,0.00,,CLR,0.00,VWS V14.00,2013-04-25 13:13:00,
2013-04-25 09:18:00,50.0,30.0,30.22,NNW,329,7.0,13.0,46,0.00,,CLR,0.00,VWS V14.00,2013-04-25 13:18:00,
2013-04-25 09:23:00,50.0,31.1,30.21,NNW,329,3.0,13.0,48,0.00,,CLR,0.00,VWS V14.00,2013-04-25 13:23:00,
2013-04-25 09:28:00,50.2,30.8,30.21,NNW,338,3.0,13.0,47,0.00,,CLR,0.00,VWS V14.00,2013-04-25 13:28:00,
2013-04-25 09:30:00,50.4,31.0,30.21,North,354,5.0,13.0,47,0.00,,CLR,0.00,VWS V14.00,2013-04-25 13:30:00,
2013-04-25 09:33:00,50.4,30.4,30.22,North,357,9.0,11.0,46,0.00,,CLR,0.00,VWS V14.00,2013-04-25 13:33:00,
2013-04-25 09:38:00,50.6,30.6,30.22,WNW,303,4.0,11.0,46,0.00,,CLR,0.00,VWS V14.00,2013-04-25 13:38:00,
2013-04-25 09:43:00,51.0,30.4,30.22,NNW,338,8.0,11.0,45,0.00,,CLR,0.00,VWS V14.00,2013-04-25 13:43:00,
2013-04-25 09:48:00,50.9,30.3,30.21,NW,326,5.0,11.0,45,0.00,,CLR,0.00,VWS V14.00,2013-04-25 13:48:00,
2013-04-25 09:53:00,51.0,30.4,30.21,NNW,328,2.0,11.0,45,0.00,,CLR,0.00,VWS V14.00,2013-04-25 13:53:00,
2013-04-25 09:58:00,51.4,31.3,30.21,NW,304,2.0,13.0,46,0.00,,CLR,0.00,VWS V14.00,2013-04-25 13:58:00,
2013-04-25 10:00:00,51.6,31.5,30.21,NW,314,3.0,13.0,46,0.00,,CLR,0.00,VWS V14.00,2013-04-25 14:00:00,
2013-04-25 10:03:00,51.8,30.6,30.21,NNW,335,6.0,10.0,44,0.00,,CLR,0.00,VWS V14.00,2013-04-25 14:03:00,
2013-04-25 10:08:00,52.4,30.6,30.21,NE,35,4.0,10.0,43,0.00,,CLR,0.00,VWS V14.00,2013-04-25 14:08:00,
2013-04-25 10:13:00,53.3,32.0,30.21,NNW,334,6.0,10.0,44,0.00,,CLR,0.00,VWS V14.00,2013-04-25 14:13:00,
2013-04-25 10:18:00,53.2,31.9,30.21,NNW,347,1.0,10.0,44,0.00,,CLR,0.00,VWS V14.00,2013-04-25 14:18:00,
2013-04-25 10:23:00,53.4,29.7,30.21,NNW,333,10.0,14.0,40,0.00,,CLR,0.00,VWS V14.00,2013-04-25 14:23:00,
2013-04-25 10:28:00,52.6,29.6,30.22,East,89,3.0,15.0,41,0.00,,CLR,0.00,VWS V14.00,2013-04-25 14:28:00,
2013-04-25 10:30:00,52.6,30.2,30.22,WNW,300,9.0,15.0,42,0.00,,CLR,0.00,VWS V14.00,2013-04-25 14:30:00,
2013-04-25 10:33:00,53.0,30.5,30.22,North,354,10.0,10.0,42,0.00,,CLR,0.00,VWS V14.00,2013-04-25 14:33:00,
2013-04-25 10:39:00,53.3,30.8,30.21,NNE,18,2.0,10.0,42,0.00,,CLR,0.00,VWS V14.00,2013-04-25 14:39:00,
2013-04-25 10:44:00,54.1,32.1,30.22,NW,304,2.0,12.0,43,0.00,,CLR,0.00,VWS V14.00,2013-04-25 14:44:00,
2013-04-25 10:49:00,54.4,30.0,30.22,NNW,330,3.0,12.0,39,0.00,,CLR,0.00,VWS V14.00,2013-04-25 14:49:00,
2013-04-25 10:54:00,54.4,29.3,30.22,WNW,297,5.0,12.0,38,0.00,,CLR,0.00,VWS V14.00,2013-04-25 14:54:00,
2013-04-25 10:59:00,54.1,30.3,30.22,WNW,303,6.0,12.0,40,0.00,,CLR,0.00,VWS V14.00,2013-04-25 14:59:00,
2013-04-25 11:00:00,54.1,29.7,30.22,NNW,330,6.0,12.0,39,0.00,,CLR,0.00,VWS V14.00,2013-04-25 15:00:00,
2013-04-25 11:04:00,54.4,30.0,30.22,West,266,8.0,10.0,39,0.00,,CLR,0.00,VWS V14.00,2013-04-25 15:04:00,
2013-04-25 11:09:00,53.8,29.4,30.22,NW,323,8.0,13.0,39,0.00,,CLR,0.00,VWS V14.00,2013-04-25 15:09:00,
2013-04-25 11:14:00,54.4,30.6,30.22,NW,319,4.0,13.0,40,0.00,,CLR,0.00,VWS V14.00,2013-04-25 15:14:00,
2013-04-25 11:19:00,54.6,29.5,30.22,NW,323,5.0,13.0,38,0.00,,CLR,0.00,VWS V14.00,2013-04-25 15:19:00,
2013-04-25 11:24:00,54.1,29.7,30.22,NNW,330,1.0,13.0,39,0.00,,CLR,0.00,VWS V14.00,2013-04-25 15:24:00,
2013-04-25 11:29:00,55.2,30.7,30.22,NW,311,7.0,13.0,39,0.00,,CLR,0.00,VWS V14.00,2013-04-25 15:29:00,
2013-04-25 11:30:00,55.2,30.7,30.22,WNW,298,8.0,13.0,39,0.00,,CLR,0.00,VWS V14.00,2013-04-25 15:30:00,
2013-04-25 11:34:00,55.4,32.1,30.22,NNW,339,5.0,11.0,41,0.00,,CLR,0.00,VWS V14.00,2013-04-25 15:34:00,
2013-04-25 11:39:00,55.3,32.0,30.22,NNW,341,8.0,11.0,41,0.00,,CLR,0.00,VWS V14.00,2013-04-25 15:39:00,
2013-04-25 11:44:00,55.7,31.8,30.23,ESE,108,3.0,11.0,40,0.00,,CLR,0.00,VWS V14.00,2013-04-25 15:44:00,
2013-04-25 11:49:00,55.8,29.9,30.23,NNE,20,3.0,11.0,37,0.00,,CLR,0.00,VWS V14.00,2013-04-25 15:49:00,
2013-04-25 11:54:00,55.5,32.2,30.23,WSW,257,3.0,11.0,41,0.00,,CLR,0.00,VWS V14.00,2013-04-25 15:54:00,
2013-04-25 11:59:00,55.5,31.6,30.23,NW,314,3.0,11.0,40,0.00,,CLR,0.00,VWS V14.00,2013-04-25 15:59:00,
2013-04-25 12:00:00,55.5,31.6,30.23,North,9,3.0,11.0,40,0.00,,CLR,0.00,VWS V14.00,2013-04-25 16:00:00,
2013-04-25 12:04:00,56.2,31.6,30.23,NNW,338,5.0,11.0,39,0.00,,CLR,0.00,VWS V14.00,2013-04-25 16:04:00,
2013-04-25 12:09:00,56.6,33.8,30.23,North,360,2.0,11.0,42,0.00,,CLR,0.00,VWS V14.00,2013-04-25 16:09:00,
2013-04-25 12:14:00,56.8,34.0,30.22,West,269,1.0,11.0,42,0.00,,CLR,0.00,VWS V14.00,2013-04-25 16:14:00,
2013-04-25 12:19:00,56.6,31.3,30.22,NE,47,3.0,11.0,38,0.00,,CLR,0.00,VWS V14.00,2013-04-25 16:19:00,
2013-04-25 12:25:00,57.0,31.0,30.22,West,279,1.0,11.0,37,0.00,,CLR,0.00,VWS V14.00,2013-04-25 16:25:00,
2013-04-25 12:30:00,58.0,33.8,30.21,West,261,6.0,7.0,40,0.00,,CLR,0.00,VWS V14.00,2013-04-25 16:30:00,
2013-04-25 12:35:00,58.4,30.2,30.22,ENE,78,3.0,15.0,34,0.00,,CLR,0.00,VWS V14.00,2013-04-25 16:35:00,
2013-04-25 12:40:00,59.1,31.5,30.21,NW,308,3.0,15.0,35,0.00,,CLR,0.00,VWS V14.00,2013-04-25 16:40:00,
2013-04-25 12:45:00,59.2,30.9,30.21,NNW,339,3.0,15.0,34,0.00,,CLR,0.00,VWS V14.00,2013-04-25 16:45:00,
2013-04-25 12:50:00,59.1,32.2,30.21,NW,315,2.0,15.0,36,0.00,,CLR,0.00,VWS V14.00,2013-04-25 16:50:00,
2013-04-25 12:55:00,59.1,32.9,30.21,NNE,22,2.0,15.0,37,0.00,,CLR,0.00,VWS V14.00,2013-04-25 16:55:00,
2013-04-25 13:00:00,59.3,30.2,30.21,NW,323,4.0,7.0,33,0.00,,CLR,0.00,VWS V14.00,2013-04-25 17:00:00,
2013-04-25 13:05:00,58.6,30.3,30.21,NNW,337,5.0,11.0,34,0.00,,CLR,0.00,VWS V14.00,2013-04-25 17:05:00,
2013-04-25 13:10:00,58.4,30.2,30.20,NW,315,4.0,11.0,34,0.00,,CLR,0.00,VWS V14.00,2013-04-25 17:10:00,
2013-04-25 13:15:00,59.6,33.3,30.20,North,355,5.0,11.0,37,0.00,,CLR,0.00,VWS V14.00,2013-04-25 17:15:00,
2013-04-25 13:20:00,59.9,30.8,30.20,North,360,1.0,11.0,33,0.00,,CLR,0.00,VWS V14.00,2013-04-25 17:20:00,
2013-04-25 13:25:00,59.9,30.0,30.20,North,352,6.0,11.0,32,0.00,,CLR,0.00,VWS V14.00,2013-04-25 17:25:00,
2013-04-25 13:30:00,59.9,30.0,30.20,North,349,1.0,1.0,32,0.00,,CLR,0.00,VWS V14.00,2013-04-25 17:30:00,
2013-04-25 13:35:00,61.0,31.7,30.20,ENE,58,5.0,5.0,33,0.00,,CLR,0.00,VWS V14.00,2013-04-25 17:35:00,
2013-04-25 13:40:00,61.3,31.2,30.19,WNW,298,7.0,10.0,32,0.00,,CLR,0.00,VWS V14.00,2013-04-25 17:40:00,
2013-04-25 13:45:00,60.9,30.1,30.19,NNE,30,3.0,10.0,31,0.00,,CLR,0.00,VWS V14.00,2013-04-25 17:45:00,
2013-04-25 13:50:00,60.9,35.1,30.20,WNW,293,0.0,10.0,38,0.00,,CLR,0.00,VWS V14.00,2013-04-25 17:50:00,
2013-04-25 13:55:00,61.9,31.0,30.19,WNW,287,0.0,10.0,31,0.00,,CLR,0.00,VWS V14.00,2013-04-25 17:55:00,
2013-04-25 14:00:00,62.4,30.6,30.19,NNE,17,6.0,6.0,30,0.00,,CLR,0.00,VWS V14.00,2013-04-25 18:00:00,
2013-04-25 14:05:00,62.4,32.2,30.19,SSW,195,3.0,7.0,32,0.00,,CLR,0.00,VWS V14.00,2013-04-25 18:05:00,
2013-04-25 14:10:00,62.7,30.0,30.19,North,354,1.0,7.0,29,0.00,,CLR,0.00,VWS V14.00,2013-04-25 18:10:00,
2013-04-25 14:16:00,62.0,30.2,30.19,WNW,298,2.0,8.0,30,0.00,,CLR,0.00,VWS V14.00,2013-04-25 18:16:00,
2013-04-25 14:21:00,62.0,29.4,30.19,SSW,198,1.0,8.0,29,0.00,,CLR,0.00,VWS V14.00,2013-04-25 18:21:00,
2013-04-25 14:26:00,62.2,32.8,30.19,WSW,238,4.0,8.0,33,0.00,,CLR,0.00,VWS V14.00,2013-04-25 18:26:00,
2013-04-25 14:30:00,62.4,30.6,30.19,West,267,0.0,8.0,30,0.00,,CLR,0.00,VWS V14.00,2013-04-25 18:30:00,
2013-04-25 14:31:00,62.5,33.8,30.19,SSW,212,0.0,2.0,34,0.00,,CLR,0.00,VWS V14.00,2013-04-25 18:31:00,
2013-04-25 14:36:00,63.4,30.6,30.18,WNW,290,2.0,7.0,29,0.00,,CLR,0.00,VWS V14.00,2013-04-25 18:36:00,
2013-04-25 14:41:00,63.0,30.3,30.19,ENE,69,4.0,7.0,29,0.00,,CLR,0.00,VWS V14.00,2013-04-25 18:41:00,
2013-04-25 14:46:00,63.2,32.9,30.19,North,5,7.0,7.0,32,0.00,,CLR,0.00,VWS V14.00,2013-04-25 18:46:00,
2013-04-25 14:51:00,63.7,31.7,30.18,NE,35,0.0,9.0,30,0.00,,CLR,0.00,VWS V14.00,2013-04-25 18:51:00,
2013-04-25 14:56:00,63.6,30.8,30.18,West,264,1.0,9.0,29,0.00,,CLR,0.00,VWS V14.00,2013-04-25 18:56:00,
2013-04-25 15:00:00,63.3,29.7,30.18,SSW,211,4.0,9.0,28,0.00,,CLR,0.00,VWS V14.00,2013-04-25 19:00:00,
2013-04-25 15:01:00,63.0,30.3,30.18,WSW,239,6.0,11.0,29,0.00,,CLR,0.00,VWS V14.00,2013-04-25 19:01:00,
2013-04-25 15:06:00,62.8,30.1,30.18,North,11,3.0,11.0,29,0.00,,CLR,0.00,VWS V14.00,2013-04-25 19:06:00,
2013-04-25 15:11:00,63.1,31.2,30.18,East,99,2.0,11.0,30,0.00,,CLR,0.00,VWS V14.00,2013-04-25 19:11:00,
2013-04-25 15:16:00,63.3,30.5,30.18,WNW,287,1.0,11.0,29,0.00,,CLR,0.00,VWS V14.00,2013-04-25 19:16:00,
2013-04-25 15:21:00,63.5,30.7,30.18,SW,217,3.0,11.0,29,0.00,,CLR,0.00,VWS V14.00,2013-04-25 19:21:00,
2013-04-25 15:26:00,63.0,29.4,30.18,NW,304,5.0,11.0,28,0.00,,CLR,0.00,VWS V14.00,2013-04-25 19:26:00,
2013-04-25 15:30:00,63.3,31.4,30.18,SW,224,3.0,11.0,30,0.00,,CLR,0.00,VWS V14.00,2013-04-25 19:30:00,
2013-04-25 15:31:00,63.5,29.8,30.18,West,261,2.0,3.0,28,0.00,,CLR,0.00,VWS V14.00,2013-04-25 19:31:00,
2013-04-25 15:36:00,63.8,31.0,30.18,North,359,2.0,4.0,29,0.00,,CLR,0.00,VWS V14.00,2013-04-25 19:36:00,
2013-04-25 15:41:00,63.9,28.4,30.18,WNW,287,3.0,9.0,26,0.00,,CLR,0.00,VWS V14.00,2013-04-25 19:41:00,
2013-04-25 15:46:00,64.1,28.5,30.17,WSW,249,1.0,9.0,26,0.00,,CLR,0.00,VWS V14.00,2013-04-25 19:46:00,
2013-04-25 15:51:00,64.1,28.5,30.18,NW,318,1.0,9.0,26,0.00,,CLR,0.00,VWS V14.00,2013-04-25 19:51:00,
2013-04-25 15:56:00,64.1,29.5,30.18,NW,315,2.0,10.0,27,0.00,,CLR,0.00,VWS V14.00,2013-04-25 19:56:00,
2013-04-25 16:00:00,64.1,28.5,30.18,NW,308,5.0,10.0,26,0.00,,CLR,0.00,VWS V14.00,2013-04-25 20:00:00,
2013-04-25 16:01:00,64.1,30.4,30.18,NNE,25,5.0,5.0,28,0.00,,CLR,0.00,VWS V14.00,2013-04-25 20:01:00,
2013-04-25 16:06:00,64.0,28.5,30.18,NNW,328,2.0,6.0,26,0.00,,CLR,0.00,VWS V14.00,2013-04-25 20:06:00,
2013-04-25 16:11:00,64.0,29.4,30.18,NW,305,1.0,6.0,27,0.00,,CLR,0.00,VWS V14.00,2013-04-25 20:11:00,
2013-04-25 16:17:00,64.4,28.8,30.18,WSW,258,5.0,6.0,26,0.00,,CLR,0.00,VWS V14.00,2013-04-25 20:17:00,
2013-04-25 16:22:00,64.0,27.5,30.17,NW,306,3.0,9.0,25,0.00,,CLR,0.00,VWS V14.00,2013-04-25 20:22:00,
2013-04-25 16:27:00,64.4,27.8,30.18,North,359,1.0,9.0,25,0.00,,CLR,0.00,VWS V14.00,2013-04-25 20:27:00,
2013-04-25 16:30:00,65.0,31.1,30.17,SE,135,0.0,9.0,28,0.00,,CLR,0.00,VWS V14.00,2013-04-25 20:30:00,
2013-04-25 16:32:00,65.3,27.6,30.17,NE,39,3.0,3.0,24,0.00,,CLR,0.00,VWS V14.00,2013-04-25 20:32:00,
2013-04-25 16:37:00,64.9,25.2,30.17,WNW,288,0.0,7.0,22,0.00,,CLR,0.00,VWS V14.00,2013-04-25 20:37:00,
2013-04-25 16:42:00,64.5,26.9,30.17,NNW,341,2.0,7.0,24,0.00,,CLR,0.00,VWS V14.00,2013-04-25 20:42:00,
2013-04-25 16:47:00,64.5,26.9,30.17,East,84,5.0,7.0,24,0.00,,CLR,0.00,VWS V14.00,2013-04-25 20:47:00,
2013-04-25 16:52:00,64.2,27.7,30.17,NW,311,3.0,8.0,25,0.00,,CLR,0.00,VWS V14.00,2013-04-25 20:52:00,
2013-04-25 16:57:00,64.4,27.8,30.17,NW,321,2.0,8.0,25,0.00,,CLR,0.00,VWS V14.00,2013-04-25 20:57:00,
2013-04-25 17:00:00,64.8,27.2,30.17,West,278,0.0,8.0,24,0.00,,CLR,0.00,VWS V14.00,2013-04-25 21:00:00,
2013-04-25 17:02:00,65.0,27.4,30.17,WSW,239,0.0,2.0,24,0.00,,CLR,0.00,VWS V14.00,2013-04-25 21:02:00,
2013-04-25 17:07:00,65.0,28.4,30.17,East,79,1.0,2.0,25,0.00,,CLR,0.00,VWS V14.00,2013-04-25 21:07:00,
2013-04-25 17:12:00,64.9,27.3,30.17,SW,226,0.0,6.0,24,0.00,,CLR,0.00,VWS V14.00,2013-04-25 21:12:00,
2013-04-25 17:17:00,65.0,28.4,30.17,WNW,300,2.0,7.0,25,0.00,,CLR,0.00,VWS V14.00,2013-04-25 21:17:00,
2013-04-25 17:22:00,64.9,26.2,30.17,South,177,1.0,7.0,23,0.00,,CLR,0.00,VWS V14.00,2013-04-25 21:22:00,
2013-04-25 17:27:00,64.6,29.0,30.18,NW,311,3.0,7.0,26,0.00,,CLR,0.00,VWS V14.00,2013-04-25 21:27:00,
2013-04-25 17:30:00,64.5,27.9,30.18,WSW,256,2.0,7.0,25,0.00,,CLR,0.00,VWS V14.00,2013-04-25 21:30:00,
2013-04-25 17:32:00,64.4,28.8,30.18,SSE,151,1.0,2.0,26,0.00,,CLR,0.00,VWS V14.00,2013-04-25 21:32:00,
2013-04-25 17:37:00,64.6,31.6,30.18,SE,133,0.0,2.0,29,0.00,,CLR,0.00,VWS V14.00,2013-04-25 21:37:00,
2013-04-25 17:42:00,64.5,28.9,30.18,East,82,1.0,3.0,26,0.00,,CLR,0.00,VWS V14.00,2013-04-25 21:42:00,
2013-04-25 17:47:00,64.1,28.5,30.18,SSW,193,1.0,4.0,26,0.00,,CLR,0.00,VWS V14.00,2013-04-25 21:47:00,
2013-04-25 17:52:00,63.8,29.2,30.18,SE,125,1.0,4.0,27,0.00,,CLR,0.00,VWS V14.00,2013-04-25 21:52:00,
2013-04-25 17:58:00,63.9,29.3,30.18,WSW,245,0.0,4.0,27,0.00,,CLR,0.00,VWS V14.00,2013-04-25 21:58:00,
2013-04-25 18:00:00,64.0,30.3,30.18,SSW,205,3.0,4.0,28,0.00,,CLR,0.00,VWS V14.00,2013-04-25 22:00:00,
2013-04-25 18:03:00,63.9,31.9,30.18,SSW,199,1.0,4.0,30,0.00,,CLR,0.00,VWS V14.00,2013-04-25 22:03:00,
2013-04-25 18:08:00,63.7,28.2,30.18,West,267,2.0,4.0,26,0.00,,CLR,0.00,VWS V14.00,2013-04-25 22:08:00,
2013-04-25 18:13:00,63.3,26.9,30.18,WNW,287,4.0,4.0,25,0.00,,CLR,0.00,VWS V14.00,2013-04-25 22:13:00,
2013-04-25 18:18:00,63.3,26.9,30.18,WSW,257,1.0,4.0,25,0.00,,CLR,0.00,VWS V14.00,2013-04-25 22:18:00,
2013-04-25 18:23:00,63.2,26.8,30.19,WNW,295,1.0,4.0,25,0.00,,CLR,0.00,VWS V14.00,2013-04-25 22:23:00,
2013-04-25 18:28:00,62.8,25.5,30.19,SW,223,3.0,4.0,24,0.00,,CLR,0.00,VWS V14.00,2013-04-25 22:28:00,
2013-04-25 18:30:00,62.8,26.5,30.19,SSE,153,2.0,4.0,25,0.00,,CLR,0.00,VWS V14.00,2013-04-25 22:30:00,
2013-04-25 18:33:00,62.7,27.4,30.19,WSW,239,2.0,3.0,26,0.00,,CLR,0.00,VWS V14.00,2013-04-25 22:33:00,
2013-04-25 18:38:00,62.4,28.0,30.19,SSW,210,2.0,4.0,27,0.00,,CLR,0.00,VWS V14.00,2013-04-25 22:38:00,
2013-04-25 18:43:00,62.1,27.8,30.19,West,273,4.0,6.0,27,0.00,,CLR,0.00,VWS V14.00,2013-04-25 22:43:00,
2013-04-25 18:48:00,62.0,29.4,30.19,SSW,205,2.0,6.0,29,0.00,,CLR,0.00,VWS V14.00,2013-04-25 22:48:00,
2013-04-25 18:53:00,61.7,26.5,30.19,WSW,249,1.0,6.0,26,0.00,,CLR,0.00,VWS V14.00,2013-04-25 22:53:00,
2013-04-25 18:58:00,61.5,27.2,30.19,SW,224,0.0,6.0,27,0.00,,CLR,0.00,VWS V14.00,2013-04-25 22:58:00,
2013-04-25 19:00:00,61.5,27.2,30.19,SW,236,1.0,6.0,27,0.00,,CLR,0.00,VWS V14.00,2013-04-25 23:00:00,
2013-04-25 19:03:00,61.4,27.1,30.19,SW,232,3.0,4.0,27,0.00,,CLR,0.00,VWS V14.00,2013-04-25 23:03:00,
2013-04-25 19:08:00,61.2,27.0,30.19,WSW,245,1.0,6.0,27,0.00,,CLR,0.00,VWS V14.00,2013-04-25 23:08:00,
2013-04-25 19:13:00,61.0,26.8,30.19,WSW,257,2.0,6.0,27,0.00,,CLR,0.00,VWS V14.00,2013-04-25 23:13:00,
2013-04-25 19:18:00,60.7,29.1,30.20,WSW,249,1.0,6.0,30,0.00,,CLR,0.00,VWS V14.00,2013-04-25 23:18:00,
2013-04-25 19:23:00,60.3,29.6,30.20,SSW,198,1.0,6.0,31,0.00,,CLR,0.00,VWS V14.00,2013-04-25 23:23:00,
2013-04-25 19:28:00,59.9,30.8,30.20,SSW,198,0.0,6.0,33,0.00,,CLR,0.00,VWS V14.00,2013-04-25 23:28:00,
2013-04-25 19:30:00,59.7,30.6,30.20,SSW,198,1.0,6.0,33,0.00,,CLR,0.00,VWS V14.00,2013-04-25 23:30:00,
2013-04-25 19:33:00,59.0,28.4,30.20,SSW,198,0.0,1.0,31,0.00,,CLR,0.00,VWS V14.00,2013-04-25 23:33:00,
2013-04-25 19:38:00,58.8,27.5,30.20,SW,236,0.0,1.0,30,0.00,,CLR,0.00,VWS V14.00,2013-04-25 23:38:00,
2013-04-25 19:43:00,58.4,27.9,30.20,SW,236,0.0,1.0,31,0.00,,CLR,0.00,VWS V14.00,2013-04-25 23:43:00,
2013-04-25 19:48:00,57.7,28.1,30.20,SW,236,0.0,1.0,32,0.00,,CLR,0.00,VWS V14.00,2013-04-25 23:48:00,
2013-04-25 19:53:00,56.7,29.4,30.20,WSW,237,0.0,1.0,35,0.00,,CLR,0.00,VWS V14.00,2013-04-25 23:53:00,
2013-04-25 19:59:00,55.8,29.9,30.20,SW,236,0.0,1.0,37,0.00,,CLR,0.00,VWS V14.00,2013-04-25 23:59:00,
2013-04-25 20:00:00,55.6,29.8,30.20,SW,236,0.0,1.0,37,0.00,,CLR,0.00,VWS V14.00,2013-04-26 00:00:00,
2013-04-25 20:04:00,55.0,30.5,30.21,SW,236,0.0,0.0,39,0.00,,CLR,0.00,VWS V14.00,2013-04-26 00:04:00,
2013-04-25 20:09:00,54.3,30.5,30.21,SW,236,0.0,1.0,40,0.00,,CLR,0.00,VWS V14.00,2013-04-26 00:09:00,
2013-04-25 20:14:00,53.9,30.1,30.21,SW,236,0.0,1.0,40,0.00,,CLR,0.00,VWS V14.00,2013-04-26 00:14:00,
2013-04-25 20:19:00,53.3,30.2,30.22,SW,236,0.0,1.0,41,0.00,,CLR,0.00,VWS V14.00,2013-04-26 00:19:00,
2013-04-25 20:24:00,52.7,29.7,30.22,SW,236,0.0,1.0,41,0.00,,CLR,0.00,VWS V14.00,2013-04-26 00:24:00,
2013-04-25 20:29:00,52.5,30.1,30.22,SW,236,0.0,1.0,42,0.00,,CLR,0.00,VWS V14.00,2013-04-26 00:29:00,
2013-04-25 20:30:00,52.4,30.0,30.22,WSW,237,0.0,1.0,42,0.00,,CLR,0.00,VWS V14.00,2013-04-26 00:30:00,
2013-04-25 20:34:00,51.9,30.1,30.22,SW,236,0.0,0.0,43,0.00,,CLR,0.00,VWS V14.00,2013-04-26 00:34:00,
2013-04-25 20:39:00,51.2,31.1,30.23,SW,236,0.0,0.0,46,0.00,,CLR,0.00,VWS V14.00,2013-04-26 00:39:00,
2013-04-25 20:44:00,50.4,30.4,30.23,SW,236,0.0,0.0,46,0.00,,CLR,0.00,VWS V14.00,2013-04-26 00:44:00,
2013-04-25 20:49:00,50.0,30.0,30.23,WSW,237,0.0,0.0,46,0.00,,CLR,0.00,VWS V14.00,2013-04-26 00:49:00,
2013-04-25 20:54:00,50.0,31.1,30.23,SW,236,0.0,0.0,48,0.00,,CLR,0.00,VWS V14.00,2013-04-26 00:54:00,
2013-04-25 20:59:00,49.9,31.0,30.24,SW,236,0.0,0.0,48,0.00,,CLR,0.00,VWS V14.00,2013-04-26 00:59:00,
2013-04-25 21:00:00,49.9,30.5,30.24,SW,236,0.0,0.0,47,0.00,,CLR,0.00,VWS V14.00,2013-04-26 01:00:00,
2013-04-25 21:04:00,49.5,30.1,30.24,SW,236,0.0,0.0,47,0.00,,CLR,0.00,VWS V14.00,2013-04-26 01:04:00,
2013-04-25 21:09:00,49.0,30.7,30.24,SW,236,0.0,0.0,49,0.00,,CLR,0.00,VWS V14.00,2013-04-26 01:09:00,
2013-04-25 21:14:00,49.9,30.0,30.24,SW,236,0.0,1.0,46,0.00,,CLR,0.00,VWS V14.00,2013-04-26 01:14:00,
2013-04-25 21:19:00,50.1,30.7,30.25,SW,236,0.0,1.0,47,0.00,,CLR,0.00,VWS V14.00,2013-04-26 01:19:00,
2013-04-25 21:24:00,49.1,33.7,30.25,WSW,237,0.0,1.0,55,0.00,,CLR,0.00,VWS V14.00,2013-04-26 01:24:00,
2013-04-25 21:29:00,48.2,31.4,30.25,SW,236,0.0,1.0,52,0.00,,CLR,0.00,VWS V14.00,2013-04-26 01:29:00,
2013-04-25 21:30:00,48.2,31.4,30.25,SW,236,0.0,1.0,52,0.00,,CLR,0.00,VWS V14.00,2013-04-26 01:30:00,
2013-04-25 21:34:00,48.1,31.8,30.25,SW,236,0.0,0.0,53,0.00,,CLR,0.00,VWS V14.00,2013-04-26 01:34:00,
2013-04-25 21:39:00,48.3,30.0,30.25,SW,236,1.0,1.0,49,0.00,,CLR,0.00,VWS V14.00,2013-04-26 01:39:00,
2013-04-25 21:44:00,49.1,30.3,30.25,SW,236,0.0,1.0,48,0.00,,CLR,0.00,VWS V14.00,2013-04-26 01:44:00,
2013-04-25 21:49:00,48.9,29.6,30.25,WSW,237,0.0,1.0,47,0.00,,CLR,0.00,VWS V14.00,2013-04-26 01:49:00,
2013-04-25 21:54:00,48.3,31.0,30.26,SW,236,0.0,1.0,51,0.00,,CLR,0.00,VWS V14.00,2013-04-26 01:54:00,
2013-04-25 21:59:00,47.2,33.2,30.26,WSW,237,0.0,1.0,58,0.00,,CLR,0.00,VWS V14.00,2013-04-26 01:59:00,
2013-04-25 22:00:00,47.2,33.2,30.26,WSW,237,0.0,1.0,58,0.00,,CLR,0.00,VWS V14.00,2013-04-26 02:00:00,
2013-04-25 22:04:00,46.2,34.3,30.26,SW,236,0.0,0.0,63,0.00,,CLR,0.00,VWS V14.00,2013-04-26 02:04:00,
2013-04-25 22:10:00,45.3,35.4,30.26,WSW,237,0.0,1.0,68,0.00,,CLR,0.00,VWS V14.00,2013-04-26 02:10:00,
2013-04-25 22:15:00,44.9,35.4,30.26,SW,236,0.0,1.0,69,0.00,,CLR,0.00,VWS V14.00,2013-04-26 02:15:00,
2013-04-25 22:20:00,44.9,35.4,30.27,SW,236,0.0,1.0,69,0.00,,CLR,0.00,VWS V14.00,2013-04-26 02:20:00,
2013-04-25 22:25:00,44.7,35.5,30.27,SW,236,0.0,1.0,70,0.00,,CLR,0.00,VWS V14.00,2013-04-26 02:25:00,
2013-04-25 22:30:00,44.3,35.5,30.27,SW,236,0.0,0.0,71,0.00,,CLR,0.00,VWS V14.00,2013-04-26 02:30:00,
2013-04-25 22:35:00,44.0,34.5,30.27,SW,236,0.0,0.0,69,0.00,,CLR,0.00,VWS V14.00,2013-04-26 02:35:00,
2013-04-25 22:40:00,43.8,33.9,30.27,SW,236,0.0,0.0,68,0.00,,CLR,0.00,VWS V14.00,2013-04-26 02:40:00,
2013-04-25 22:45:00,43.9,34.0,30.27,SW,236,0.0,0.0,68,0.00,,CLR,0.00,VWS V14.00,2013-04-26 02:45:00,
2013-04-25 22:50:00,43.7,34.2,30.27,SW,236,0.0,0.0,69,0.00,,CLR,0.00,VWS V14.00,2013-04-26 02:50:00,
2013-04-25 22:55:00,43.3,33.8,30.27,SW,236,0.0,0.0,69,0.00,,CLR,0.00,VWS V14.00,2013-04-26 02:55:00,
2013-04-25 23:00:00,43.2,33.4,30.27,WSW,237,0.0,0.0,68,0.00,,CLR,0.00,VWS V14.00,2013-04-26 03:00:00,
2013-04-25 23:05:00,42.8,33.0,30.28,SW,236,0.0,0.0,68,0.00,,CLR,0.00,VWS V14.00,2013-04-26 03:05:00,
2013-04-25 23:10:00,42.5,32.3,30.28,SW,236,0.0,0.0,67,0.00,,CLR,0.00,VWS V14.00,2013-04-26 03:10:00,
2013-04-25 23:15:00,42.5,31.6,30.28,WSW,237,0.0,0.0,65,0.00,,CLR,0.00,VWS V14.00,2013-04-26 03:15:00,
2013-04-25 23:20:00,42.5,31.6,30.28,WSW,237,0.0,0.0,65,0.00,,CLR,0.00,VWS V14.00,2013-04-26 03:20:00,
2013-04-25 23:25:00,42.7,31.4,30.28,SW,236,0.0,0.0,64,0.00,,CLR,0.00,VWS V14.00,2013-04-26 03:25:00,
2013-04-25 23:30:00,42.4,31.9,30.28,WSW,237,0.0,0.0,66,0.00,,CLR,0.00,VWS V14.00,2013-04-26 03:30:00,
2013-04-25 23:35:00,42.2,31.3,30.28,SW,236,0.0,0.0,65,0.00,,CLR,0.00,VWS V14.00,2013-04-26 03:35:00,
2013-04-25 23:40:00,42.2,31.3,30.28,SW,236,0.0,0.0,65,0.00,,CLR,0.00,VWS V14.00,2013-04-26 03:40:00,
2013-04-25 23:45:00,42.4,32.6,30.28,SW,236,0.0,0.0,68,0.00,,CLR,0.00,VWS V14.00,2013-04-26 03:45:00,
2013-04-25 23:50:00,42.4,33.3,30.28,SW,236,0.0,0.0,70,0.00,,CLR,0.00,VWS V14.00,2013-04-26 03:50:00,
2013-04-25 23:55:00,42.5,33.8,30.28,WSW,237,0.0,0.0,71,0.00,,CLR,0.00,VWS V14.00,2013-04-26 03:55:00,